�������l�o���
Date,Time,MP-1(��Sv/h),MP-2(��Sv/h),MP-3(��Sv/h),MP-4(��Sv/h),MP-5(��Sv/h),MP-6(��Sv/h),MP-7(��Sv/h),MP-8(��Sv/h),����,����(m/s),���J
2024/04/01,00:00,0.501,0.761,0.482,0.946,0.668,0.313,0.546,0.515,�k�k��,5.3,��
2024/04/01,00:10,0.503,0.761,0.480,0.946,0.668,0.312,0.548,0.516,�k�k��,5.8,��
2024/04/01,00:20,0.504,0.763,0.480,0.946,0.668,0.312,0.548,0.515,�k�k��,6.1,��
2024/04/01,00:30,0.500,0.762,0.481,0.945,0.667,0.315,0.549,0.516,�k,5.2,��
2024/04/01,00:40,0.503,0.762,0.481,0.947,0.665,0.314,0.549,0.515,�k�k��,5.8,��
2024/04/01,00:50,0.503,0.762,0.482,0.944,0.669,0.312,0.549,0.515,�k,5.9,��
2024/04/01,01:00,0.500,0.763,0.481,0.947,0.668,0.313,0.549,0.516,�k�k��,6.7,��
2024/04/01,01:10,0.501,0.763,0.481,0.946,0.668,0.313,0.549,0.516,�k�k��,7.6,��
2024/04/01,01:20,0.500,0.763,0.481,0.947,0.667,0.312,0.548,0.516,�k,7.1,��
2024/04/01,01:30,0.503,0.763,0.480,0.945,0.668,0.313,0.550,0.514,�k,6.5,��
2024/04/01,01:40,0.502,0.762,0.480,0.945,0.667,0.311,0.549,0.516,�k�k��,7.2,��
2024/04/01,01:50,0.500,0.763,0.479,0.946,0.669,0.312,0.549,0.516,�k,5.9,��
2024/04/01,02:00,0.501,0.763,0.481,0.946,0.667,0.312,0.549,0.515,�k,6.6,��
2024/04/01,02:10,0.502,0.762,0.480,0.947,0.668,0.313,0.548,0.516,�k,6.6,��
2024/04/01,02:20,0.503,0.762,0.482,0.945,0.667,0.312,0.550,0.517,�k,6.3,��
2024/04/01,02:30,0.502,0.764,0.480,0.946,0.667,0.312,0.548,0.516,�k,6.0,��
2024/04/01,02:40,0.500,0.763,0.482,0.947,0.668,0.312,0.548,0.516,�k,5.3,��
2024/04/01,02:50,0.502,0.764,0.480,0.947,0.668,0.313,0.547,0.516,�k,5.4,��
2024/04/01,03:00,0.502,0.763,0.482,0.945,0.668,0.312,0.547,0.515,�k�k��,4.7,��
2024/04/01,03:10,0.502,0.761,0.480,0.946,0.668,0.312,0.548,0.516,�k�k��,5.1,��
2024/04/01,03:20,0.502,0.763,0.480,0.947,0.668,0.313,0.549,0.515,�k�k��,5.0,��
2024/04/01,03:30,0.502,0.763,0.481,0.947,0.666,0.312,0.549,0.516,�k�k��,5.7,��
2024/04/01,03:40,0.502,0.764,0.481,0.947,0.668,0.313,0.547,0.516,�k�k��,5.3,��
2024/04/01,03:50,0.501,0.763,0.481,0.947,0.668,0.312,0.548,0.514,�k�k��,5.2,��
2024/04/01,04:00,0.502,0.763,0.482,0.944,0.667,0.311,0.547,0.517,�k�k��,4.8,��
2024/04/01,04:10,0.501,0.763,0.481,0.946,0.668,0.313,0.547,0.515,�k�k��,5.1,��
2024/04/01,04:20,0.502,0.763,0.482,0.948,0.667,0.311,0.548,0.515,�k�k��,6.8,��
2024/04/01,04:30,0.502,0.762,0.481,0.947,0.668,0.312,0.548,0.516,�k�k��,6.0,��
2024/04/01,04:40,0.503,0.765,0.481,0.949,0.668,0.313,0.547,0.515,�k�k��,5.7,��
2024/04/01,04:50,0.502,0.762,0.480,0.946,0.669,0.314,0.549,0.516,�k�k��,5.7,��
2024/04/01,05:00,0.502,0.764,0.481,0.947,0.669,0.312,0.548,0.517,�k�k��,5.6,��
2024/04/01,05:10,0.501,0.762,0.478,0.946,0.667,0.313,0.548,0.517,�k�k��,5.5,��
2024/04/01,05:20,0.501,0.763,0.481,0.946,0.668,0.311,0.550,0.515,�k�k��,5.7,��
2024/04/01,05:30,0.502,0.764,0.481,0.948,0.668,0.313,0.548,0.517,�k�k��,5.4,��
2024/04/01,05:40,0.502,0.764,0.481,0.947,0.668,0.311,0.548,0.516,�k�k��,6.5,��
2024/04/01,05:50,0.503,0.763,0.481,0.945,0.668,0.312,0.548,0.516,�k�k��,5.9,��
2024/04/01,06:00,0.503,0.764,0.481,0.945,0.669,0.312,0.549,0.515,�k�k��,6.5,��
2024/04/01,06:10,0.503,0.764,0.482,0.945,0.666,0.312,0.548,0.515,�k�k��,5.2,��
2024/04/01,06:20,0.501,0.764,0.480,0.948,0.668,0.312,0.547,0.517,�k�k��,6.2,��
2024/04/01,06:30,0.502,0.763,0.481,0.948,0.666,0.312,0.549,0.514,�k�k��,5.7,��
2024/04/01,06:40,0.501,0.762,0.480,0.946,0.667,0.311,0.550,0.516,�k�k��,5.1,��
2024/04/01,06:50,0.503,0.763,0.481,0.948,0.669,0.312,0.548,0.515,�k�k��,5.7,��
2024/04/01,07:00,0.503,0.764,0.481,0.946,0.667,0.312,0.549,0.515,�k�k��,5.0,��
2024/04/01,07:10,0.503,0.760,0.481,0.948,0.668,0.312,0.549,0.516,�k�k��,5.2,��
2024/04/01,07:20,0.502,0.763,0.481,0.948,0.667,0.313,0.551,0.516,�k�k��,5.6,��
2024/04/01,07:30,0.502,0.763,0.481,0.946,0.667,0.313,0.548,0.517,�k��,4.7,��
2024/04/01,07:40,0.502,0.765,0.479,0.946,0.669,0.312,0.549,0.515,�k��,5.2,��
2024/04/01,07:50,0.503,0.768,0.480,0.948,0.669,0.311,0.548,0.517,�k�k��,5.4,��
2024/04/01,08:00,0.502,0.764,0.481,0.949,0.668,0.314,0.548,0.515,�k�k��,5.8,��
2024/04/01,08:10,0.503,0.763,0.481,0.948,0.667,0.311,0.550,0.516,�k�k��,5.0,��
2024/04/01,08:20,0.503,0.764,0.480,0.948,0.669,0.312,0.550,0.516,�k�k��,5.2,��
2024/04/01,08:30,0.502,0.765,0.481,0.950,0.669,0.312,0.550,0.517,�k,6.0,��
2024/04/01,08:40,0.500,0.763,0.482,0.948,0.670,0.313,0.549,0.516,�k,7.1,��
2024/04/01,08:50,0.502,0.762,0.481,0.949,0.666,0.312,0.551,0.517,�k,5.7,��
2024/04/01,09:00,0.503,0.764,0.480,0.948,0.669,0.313,0.549,0.516,�k,6.4,��
2024/04/01,09:10,0.502,0.760,0.481,0.950,0.669,0.311,0.550,0.516,�k,8.0,��
2024/04/01,09:20,0.503,0.762,0.480,0.949,0.671,0.311,0.548,0.516,�k�k��,8.5,��
2024/04/01,09:30,0.502,0.761,0.481,0.948,0.671,0.311,0.549,0.515,�k�k��,8.9,��
2024/04/01,09:40,0.503,0.761,0.481,0.951,0.670,0.312,0.548,0.515,�k�k��,8.4,��
2024/04/01,09:50,0.504,0.763,0.482,0.948,0.668,0.311,0.549,0.514,�k,8.8,��
2024/04/01,10:00,0.503,0.764,0.481,0.950,0.670,0.312,0.549,0.515,�k,8.1,��
2024/04/01,10:10,0.504,0.762,0.480,0.952,0.669,0.312,0.549,0.512,�k�k��,8.4,��
2024/04/01,10:20,0.503,0.761,0.481,0.951,0.667,0.311,0.548,0.514,�k,9.5,��
2024/04/01,10:30,0.504,0.763,0.483,0.949,0.670,0.311,0.547,0.514,�k�k��,8.7,��
2024/04/01,10:40,0.502,0.762,0.483,0.950,0.671,0.311,0.548,0.515,�k,9.5,��
2024/04/01,10:50,0.501,0.763,0.482,0.949,0.669,0.310,0.550,0.515,�k�k��,9.5,��
2024/04/01,11:00,0.502,0.763,0.482,0.949,0.670,0.312,0.549,0.515,�k�k��,9.1,��
2024/04/01,11:10,0.503,0.765,0.481,0.948,0.671,0.312,0.549,0.516,�k,8.1,��
2024/04/01,11:20,0.503,0.761,0.480,0.950,0.669,0.311,0.549,0.514,�k�k��,8.4,��
2024/04/01,11:30,0.503,0.762,0.482,0.950,0.669,0.312,0.549,0.515,�k�k��,7.5,��
2024/04/01,11:40,0.502,0.764,0.482,0.950,0.671,0.312,0.550,0.515,�k�k��,8.3,��
2024/04/01,11:50,0.503,0.764,0.483,0.950,0.670,0.312,0.549,0.515,�k�k��,8.2,��
2024/04/01,12:00,0.503,0.764,0.482,0.951,0.669,0.312,0.549,0.515,�k�k��,8.4,��
2024/04/01,12:10,0.503,0.766,0.481,0.950,0.670,0.310,0.548,0.516,�k�k��,8.8,��
2024/04/01,12:20,0.504,0.764,0.482,0.951,0.669,0.312,0.549,0.516,�k�k��,7.7,��
2024/04/01,12:30,0.503,0.764,0.481,0.950,0.669,0.312,0.550,0.515,�k�k��,7.2,��
2024/04/01,12:40,0.502,0.763,0.482,0.950,0.671,0.313,0.550,0.516,�k�k��,7.7,��
2024/04/01,12:50,0.502,0.764,0.482,0.952,0.671,0.314,0.549,0.515,�k�k��,6.7,��
2024/04/01,13:00,0.503,0.766,0.481,0.952,0.672,0.312,0.548,0.515,�k�k��,6.2,��
2024/04/01,13:10,0.502,0.764,0.482,0.954,0.671,0.314,0.550,0.516,�k�k��,6.4,��
2024/04/01,13:20,0.502,0.766,0.481,0.949,0.671,0.313,0.549,0.515,�k�k��,6.4,��
2024/04/01,13:30,0.503,0.766,0.480,0.952,0.672,0.314,0.548,0.516,�k�k��,5.6,��
2024/04/01,13:40,0.503,0.764,0.482,0.951,0.670,0.314,0.549,0.516,�k�k��,6.0,��
2024/04/01,13:50,0.506,0.766,0.482,0.954,0.671,0.312,0.551,0.516,�k�k��,5.0,��
2024/04/01,14:00,0.502,0.766,0.479,0.950,0.672,0.312,0.551,0.516,�k�k��,5.0,��
2024/04/01,14:10,0.504,0.764,0.482,0.953,0.671,0.313,0.550,0.515,�k�k��,6.0,��
2024/04/01,14:20,0.502,0.766,0.483,0.952,0.672,0.315,0.552,0.515,�k�k��,6.6,��
2024/04/01,14:30,0.505,0.766,0.482,0.953,0.671,0.314,0.551,0.517,�k�k��,6.5,��
2024/04/01,14:40,0.502,0.766,0.482,0.952,0.672,0.312,0.552,0.515,�k�k��,7.3,��
2024/04/01,14:50,0.501,0.765,0.484,0.953,0.670,0.313,0.549,0.515,�k�k��,6.6,��
2024/04/01,15:00,0.504,0.765,0.482,0.953,0.673,0.313,0.550,0.515,�k�k��,5.6,��
2024/04/01,15:10,0.503,0.766,0.483,0.957,0.672,0.315,0.550,0.515,�k�k��,5.3,��
2024/04/01,15:20,0.504,0.767,0.483,0.953,0.671,0.314,0.549,0.514,�k�k��,4.7,��
2024/04/01,15:30,0.506,0.769,0.484,0.953,0.671,0.315,0.549,0.515,�k�k��,4.8,��
2024/04/01,15:40,0.504,0.770,0.486,0.955,0.671,0.314,0.550,0.515,�k�k��,4.9,��
2024/04/01,15:50,0.504,0.769,0.484,0.953,0.671,0.314,0.550,0.517,�k�k��,4.6,��
2024/04/01,16:00,0.505,0.769,0.484,0.953,0.672,0.315,0.551,0.516,�k�k��,3.8,��
2024/04/01,16:10,0.505,0.767,0.486,0.951,0.671,0.314,0.552,0.518,�k�k��,2.6,��
2024/04/01,16:20,0.506,0.767,0.484,0.953,0.671,0.314,0.551,0.517,�k�k��,3.1,��
2024/04/01,16:30,0.506,0.767,0.483,0.952,0.673,0.314,0.551,0.518,�k��,2.6,��
2024/04/01,16:40,0.504,0.767,0.484,0.952,0.669,0.314,0.551,0.517,���k��,2.6,��
2024/04/01,16:50,0.507,0.768,0.482,0.954,0.672,0.314,0.550,0.518,���k��,2.5,��
2024/04/01,17:00,0.506,0.766,0.481,0.954,0.671,0.314,0.550,0.517,���k��,1.7,��
2024/04/01,17:10,0.506,0.767,0.482,0.954,0.672,0.314,0.550,0.518,�k��,1.1,��
2024/04/01,17:20,0.504,0.770,0.481,0.952,0.670,0.315,0.551,0.518,�k�k��,1.1,��
2024/04/01,17:30,0.507,0.769,0.484,0.952,0.671,0.314,0.551,0.516,��,2.6,��
2024/04/01,17:40,0.505,0.769,0.483,0.953,0.671,0.314,0.550,0.517,���k��,7.4,��
2024/04/01,17:50,0.506,0.769,0.483,0.953,0.673,0.314,0.551,0.517,���k��,7.0,��
2024/04/01,18:00,0.504,0.769,0.483,0.951,0.673,0.314,0.550,0.517,���k��,7.1,��
2024/04/01,18:10,0.508,0.772,0.483,0.953,0.674,0.314,0.551,0.518,���k��,8.1,��
2024/04/01,18:20,0.506,0.769,0.484,0.952,0.675,0.313,0.552,0.517,���k��,5.9,��
2024/04/01,18:30,0.506,0.772,0.484,0.952,0.674,0.315,0.552,0.517,�k��,4.6,��
2024/04/01,18:40,0.505,0.767,0.483,0.953,0.674,0.315,0.552,0.517,���k��,5.7,��
2024/04/01,18:50,0.504,0.769,0.483,0.954,0.676,0.314,0.551,0.516,���k��,5.9,��
2024/04/01,19:00,0.504,0.769,0.483,0.951,0.673,0.315,0.551,0.518,��,4.2,��
2024/04/01,19:10,0.504,0.771,0.483,0.955,0.673,0.315,0.550,0.517,���k��,5.3,��
2024/04/01,19:20,0.505,0.768,0.484,0.954,0.673,0.315,0.552,0.517,��,4.4,��
2024/04/01,19:30,0.505,0.776,0.483,0.953,0.673,0.314,0.552,0.516,���k��,4.5,��
2024/04/01,19:40,0.507,0.770,0.485,0.955,0.672,0.313,0.551,0.517,��,5.4,��
2024/04/01,19:50,0.506,0.769,0.483,0.955,0.675,0.315,0.553,0.517,���k��,6.9,��
2024/04/01,20:00,0.506,0.768,0.483,0.954,0.673,0.314,0.553,0.517,���k��,6.3,��
2024/04/01,20:10,0.505,0.769,0.482,0.954,0.673,0.315,0.552,0.516,��,6.9,��
2024/04/01,20:20,0.504,0.770,0.484,0.955,0.673,0.312,0.553,0.517,���쐼,7.0,��
2024/04/01,20:30,0.504,0.769,0.483,0.956,0.674,0.313,0.553,0.518,�쐼,6.6,�L
2024/04/01,20:40,0.505,0.767,0.483,0.955,0.674,0.313,0.553,0.517,�쐼,7.1,��
2024/04/01,20:50,0.505,0.769,0.483,0.954,0.675,0.313,0.551,0.516,���쐼,6.8,��
2024/04/01,21:00,0.506,0.770,0.482,0.952,0.673,0.313,0.552,0.517,���쐼,4.9,��
2024/04/01,21:10,0.503,0.770,0.484,0.952,0.673,0.312,0.553,0.517,���쐼,5.7,��
2024/04/01,21:20,0.504,0.767,0.483,0.953,0.674,0.312,0.552,0.518,��,4.6,��
2024/04/01,21:30,0.505,0.769,0.483,0.952,0.673,0.313,0.552,0.517,���k��,3.9,��
2024/04/01,21:40,0.504,0.769,0.482,0.954,0.674,0.313,0.552,0.517,���k��,5.0,��
2024/04/01,21:50,0.504,0.768,0.483,0.955,0.673,0.314,0.553,0.518,���k��,6.5,��
2024/04/01,22:00,0.506,0.767,0.484,0.954,0.674,0.313,0.552,0.517,��,7.0,��
2024/04/01,22:10,0.505,0.768,0.483,0.954,0.675,0.314,0.552,0.517,��,6.6,��
2024/04/01,22:20,0.505,0.768,0.483,0.954,0.674,0.313,0.552,0.518,��,6.3,��
2024/04/01,22:30,0.505,0.768,0.483,0.954,0.673,0.313,0.552,0.518,��,5.6,��
2024/04/01,22:40,0.505,0.769,0.483,0.954,0.674,0.314,0.553,0.516,���k��,4.5,��
2024/04/01,22:50,0.506,0.769,0.483,0.954,0.676,0.315,0.552,0.517,��,5.9,��
2024/04/01,23:00,0.505,0.769,0.485,0.955,0.674,0.313,0.553,0.517,��,6.4,��
2024/04/01,23:10,0.505,0.768,0.483,0.955,0.675,0.315,0.553,0.517,��,7.3,��
2024/04/01,23:20,0.506,0.769,0.485,0.954,0.675,0.313,0.552,0.517,��,7.2,��
2024/04/01,23:30,0.505,0.770,0.483,0.954,0.674,0.313,0.551,0.517,���쐼,6.7,��
2024/04/01,23:40,0.505,0.769,0.483,0.956,0.674,0.314,0.551,0.517,���쐼,6.5,��
2024/04/01,23:50,0.505,0.768,0.483,0.954,0.676,0.314,0.553,0.518,��,7.2,��
